Home   Weather   Miami   Past weeks

Flag for USA Past Weather in Miami, Florida, USA — Yesterday and Last 2 Weeks

Now
81 °F

Passing clouds.


Feels Like: 86 °F
Forecast: 78 / 85 °F
Wind: 8 mph from Southeast

Location: Miami International Airport

Current Time: Sep 25, 2016 at 10:05:23 PM

Latest Report: Sep 25, 2016 at 8:53 PM


Visibility: 10 mi

Pressure: 30.00 "Hg

Humidity: 79%

Dew Point: 74 °F

Location of MiamiLocation

Past Weather in Miami — Graph

°F

Miami Temperature Yesterday

Maximum temperature yesterday: 87 °F (at 10:53 AM)
Minimum temperature yesterday: 77 °F (at 12:53 PM)
Average temperature yesterday: 80 °F

High & Low Weather Summary for the Past Weeks

 TemperatureHumidityPressure
High92 °F (Sep 18, 1:53 PM)100% (Sep 21, 3:53 AM)30.10 "Hg (Sep 21, 3:53 AM)
Low75 °F (Sep 20, 2:53 PM)51% (Sep 18, 1:53 PM)29.91 "Hg (Sep 12, 5:53 PM)
Average83 °F79%29.99 "Hg
* Reported Sep 10 8:53 PM — Sep 25 8:53 PM, Miami, Weather by CustomWeather, © 2016

Note: Actual official high and low records may vary slightly from our data, if they occured in-between our weather recording intervals... More about our weather records

Advertising

Miami Weather History for the Previous 24 Hours

Scroll right to see more
 ConditionsComfort  
Time TempWeatherWind HumidityBarometerVisibility
8:53 PM
Sun, Sep 25
81 °FPassing clouds.8 mph79%30.00 "Hg10 mi
7:53 PM82 °FPartly cloudy.10 mph77%29.98 "Hg10 mi
6:53 PM82 °FBroken clouds.8 mph79%29.97 "Hg10 mi
5:53 PM83 °FBroken clouds.9 mph74%29.96 "Hg10 mi
4:53 PM85 °FBroken clouds.8 mph70%29.95 "Hg10 mi
3:53 PM85 °FBroken clouds.9 mph72%29.97 "Hg10 mi
2:53 PM85 °FPartly sunny.7 mph70%29.97 "Hg10 mi
1:53 PM86 °FBroken clouds.12 mph72%30.00 "Hg10 mi
12:53 PM88 °FBroken clouds.12 mph65%30.03 "Hg10 mi
11:53 AM86 °FBroken clouds.9 mph65%30.04 "Hg10 mi
10:53 AM86 °FBroken clouds.9 mph67%30.04 "Hg10 mi
9:53 AM82 °FThunderstorms. Broken clouds.7 mph79%30.03 "Hg10 mi
8:53 AM79 °FThunderstorms. Scattered clouds.5 mph84%30.03 "Hg10 mi
7:53 AM76 °FScattered clouds.3 mph97%30.00 "Hg10 mi
6:53 AM76 °FPassing clouds.3 mph94%29.99 "Hg10 mi
5:53 AM75 °FPassing clouds.3 mph96%29.97 "Hg10 mi
4:53 AM76 °FPassing clouds.3 mph91%29.98 "Hg10 mi
3:53 AM76 °FPassing clouds.3 mph91%29.98 "Hg10 mi
2:53 AM75 °FPassing clouds.No wind96%29.98 "Hg10 mi
1:53 AM77 °FPassing clouds.No wind90%29.99 "Hg10 mi
12:53 AM76 °FPassing clouds.5 mph85%30.00 "Hg10 mi
11:53 PM
Sat, Sep 24
79 °FThunderstorms. Passing clouds.12 mph94%30.03 "Hg10 mi
10:53 PM78 °FPassing clouds.No wind96%30.02 "Hg10 mi
Weather by CustomWeather, © 2016

See weather overviewHow to use our weather pages